Flag for Canada Weather past 2 weeks in Iqaluit, Nunavut Territory, Canada

Now
14 °F

Light snow. Ice fog.


Feels Like: 3 °F
Forecast: -13 / 10 °F
Wind: 8 mph from Northwest

Location: Iqaluit

Current Time: Dec 17, 2014 at 9:42:55 PM

Latest Report: Dec 17, 2014 at 9:00 PM


Visibility: 5 mi

Pressure: 29.68 "Hg

Humidity: 85%

Dew point: 10 °F

Location of IqaluitLocation

Historic Weather in Iqaluit — Graph

°F

Iqaluit temperature yesterday

Maximum temperature yesterday: -13 °F (at 11:00 PM)
Minimum temperature yesterday: -20 °F (at 12:00 AM)
Average temperature yesterday: -18 °F

Past Weeks' High & Low Weather Summary

 TemperatureHumidityPressure
High23 °F (Dec 11, 8:00 AM)86% (Dec 13, 10:00 PM)30.53 "Hg (Dec 13, 10:00 PM)
Low-26 °F (Dec 9, 7:00 PM)50% (Dec 7, 7:00 AM)29.22 "Hg (Dec 4, 7:00 PM)
Average-2 °F70%29.87 "Hg
* Reported Dec 2 8:00 PM — Dec 17 8:00 PM, Iqaluit, Weather by CustomWeather, © 2014

Note: Actual official high and low records may vary slightly from our data, if they occured in-between our weather recording intervals... More about our weather records

Advertising

Iqaluit weather history for previous 24 hours

 ConditionsComfort  
Time TempWeatherWind HumidityBarometerVisibility
8:00 PM
Dec 17
16 °FLight snow. Ice fog.13 mph79%29.69 "Hg5 mi
7:00 PM16 °FLight snow. Ice fog.15 mph79%29.70 "Hg5 mi
6:00 PM14 °FLight snow. Overcast.6 mph79%29.72 "Hg10 mi
5:00 PM16 °FLight snow. Overcast.12 mph79%29.74 "Hg15 mi
4:00 PM12 °FLight snow. Overcast.No wind79%29.76 "Hg10 mi
3:00 PM10 °FLight snow. Overcast.5 mph85%29.78 "Hg2 mi
2:49 PM10 °FLight snow. Overcast.5 mph85%29.78 "Hg2 mi
2:00 PM10 °FLight snow. Ice fog.6 mph79%29.80 "Hg1 mi
1:00 PM10 °FLight snow. Overcast.2 mph85%29.83 "Hg2 mi
12:54 PM10 °FLight snow. Overcast.2 mph79%29.83 "Hg2 mi
12:00 PM9 °FLight snow. Overcast.7 mph85%29.85 "Hg6 mi
11:52 AM9 °FLight snow. Overcast.8 mph85%29.85 "Hg5 mi
11:00 AM7 °FLight snow. Overcast.7 mph78%29.88 "Hg2 mi
10:00 AM5 °FLight snow. Ice fog.10 mph85%29.92 "Hg2 mi
9:00 AM5 °FLight snow. Ice fog.9 mph78%29.95 "Hg2 mi
8:00 AM5 °FLight snow. Overcast.10 mph72%29.96 "Hg5 mi
7:00 AM3 °FLight snow. Overcast.8 mph72%29.99 "Hg7 mi
6:00 AM1 °FSnow flurries. Partly cloudy.8 mph78%30.02 "Hg15 mi
5:00 AM-2 °FSnow flurries. Overcast.3 mph77%30.05 "Hg15 mi
4:00 AM-6 °FSnow flurries. Overcast.2 mph77%30.08 "Hg15 mi
3:00 AM-8 °FSnow flurries. Passing clouds.3 mph77%30.10 "Hg15 mi
2:00 AM-8 °FPassing clouds.5 mph70%30.12 "Hg15 mi
1:00 AM-9 °FPassing clouds.2 mph70%30.14 "Hg15 mi
12:00 AM-11 °FPassing clouds.No wind70%30.14 "Hg15 mi
11:00 PM
Dec 16
-13 °FPassing clouds.2 mph69%30.17 "Hg15 mi
10:00 PM-17 °FPassing clouds.6 mph69%30.19 "Hg15 mi
9:00 PM-17 °FPassing clouds.No wind69%30.19 "Hg15 mi
Weather by CustomWeather, © 2014

See weather overviewHow to use our weather pages